weather.gov     
National Weather Service

Terminal Aerodrome Forecast
NWS Homepage
This page is being discontinued on March 12, 2014.
The same data is available at this site. Please update your bookmarks.
Thank you, and we apologize for the inconvenience.
Please send an email to SR-SRH.Webmaster@noaa.gov with any concerns.


Current Version
Previous Version:    01  02  03  04  05  06  07  08  09  10  11  12  13  14  15  16  17  18  19  20  21  22  23  24  25  26  27  28  29  
[Printable]
544
FTUS44 KHUN 271357 AAA
TAFHSV
TAF AMD
KHSV 271357Z 2714/2812 31009G15KT P6SM BKN026 OVC035
     FM271700 35010G18KT P6SM BKN025 OVC035
     FM280000 VRB05KT P6SM SCT015 SCT150=


544
FTUS44 KHUN 271357 AAA
TAFHSV
TAF AMD
KHSV 271357Z 2714/2812 31009G15KT P6SM BKN026 OVC035
     FM271700 35010G18KT P6SM BKN025 OVC035
     FM280000 VRB05KT P6SM SCT015 SCT150=




U.S. Dept. of Commerce
NOAA National Weather Service
1325 East West Highway
Silver Spring, MD 20910
E-mail: w-nws.webmaster@noaa.gov
Page last modified: May 16, 2007
NATIONAL WEATHER SERVICE: for Safety, for Work, for Fun - FOR LIFE